This is the latest recevied weather packets stored in our database for station/object HS5SQI-1. If no packets are shown the sender has not sent any weather packets the latest 10 day(s).
| Time | Temp. | Humidity | Pressure | Rain* | Wind** | Luminosity | Snow |
|---|---|---|---|---|---|---|---|
| 1778055541 | 35° C | 90% | 962 hPa | - | - | 0 W/m² | - |
| 1778054919 | 35° C | 86% | 962 hPa | - | - | 0 W/m² | - |
| 1778054299 | 34.44° C | 79% | 962 hPa | - | - | 0 W/m² | - |
| 1778053675 | 34.44° C | 94% | 962 hPa | - | - | 0 W/m² | - |
| 1778053054 | 34.44° C | 94% | 963 hPa | - | - | 0 W/m² | - |
| 1778052431 | 33.89° C | 98% | 963 hPa | - | - | 0 W/m² | - |
| 1778051809 | 34.44° C | 95% | 963 hPa | - | - | 0 W/m² | - |
| 1778051187 | 33.89° C | 96% | 964 hPa | - | - | 0 W/m² | - |
| 1778050565 | 33.89° C | 99% | 964 hPa | - | - | 0 W/m² | - |
| 1778049943 | 33.89° C | 99% | 964 hPa | - | - | 0 W/m² | - |
| 1778049321 | 33.89° C | 99% | 964 hPa | - | - | 0 W/m² | - |
| 1778048699 | 32.78° C | 99% | 965 hPa | - | - | 0 W/m² | - |
| 1778048077 | 33.33° C | 99% | 965 hPa | - | - | 0 W/m² | - |
| 1778047504 | 32.78° C | 99% | 965 hPa | - | - | 0 W/m² | - |
| 1778046833 | 32.22° C | 99% | 965 hPa | - | - | 0 W/m² | - |
| 1778046213 | 32.22° C | 99% | 965 hPa | - | - | 0 W/m² | - |
| 1778045589 | 32.22° C | 99% | 966 hPa | - | - | 0 W/m² | - |
| 1778044967 | 31.67° C | 99% | 966 hPa | - | - | 0 W/m² | - |
| 1778044345 | 31.67° C | 99% | 966 hPa | - | - | 0 W/m² | - |
| 1778043723 | 31.11° C | 99% | 966 hPa | - | - | 0 W/m² | - |
| 1778043101 | 31.11° C | 99% | 966 hPa | - | - | 0 W/m² | - |
| 1778042481 | 31.11° C | 99% | 966 hPa | - | - | 0 W/m² | - |
| 1778041857 | 30.56° C | 99% | 966 hPa | - | - | 0 W/m² | - |
| 1778041235 | 30.56° C | 99% | 966 hPa | - | - | 0 W/m² | - |
| 1778040613 | 30° C | 99% | 967 hPa | - | - | 0 W/m² | - |
* Rain since midnight (hover to see other rain measurements)
** Current wind speed in m/s (hover to see current wind gust speed)